Flag for U.S.A. Weather past 2 weeks in Pasadena, California, U.S.A.

Now
78 °F

Sunny.


Feels Like: 79 °F
Forecast: 60 / 77 °F
Wind: 6 mph from South

Location: Burbank-Glendale-Pasadena Airport

Current Time: Oct 20, 2014 at 3:17:45 PM

Latest Report: Oct 20, 2014 at 2:53 PM


Visibility: 10 mi

Pressure: 29.84 "Hg

Humidity: 43%

Dew point: 54 °F

Location of PasadenaLocation

Historic Weather in Pasadena — Graph

°F

Pasadena temperature yesterday

Maximum temperature yesterday: 77 °F (at 2:53 PM)
Minimum temperature yesterday: 56 °F (at 6:53 AM)
Average temperature yesterday: 66 °F

Past Weeks' High & Low Weather Summary

 TemperatureHumidityPressure
High96 °F (Oct 5, 1:53 PM)97% (Oct 13, 7:53 AM)30.00 "Hg (Oct 13, 7:53 AM)
Low56 °F (Oct 18, 6:53 AM)9% (Oct 5, 1:53 PM)29.75 "Hg (Oct 8, 3:53 PM)
Average70 °F61%29.89 "Hg
* Reported Oct 5 1:53 PM — Oct 20 1:53 PM, Pasadena, Weather by CustomWeather, © 2014

Note: Actual official high and low records may vary slightly from our data, if they occured in-between our weather recording intervals... More about our weather records

Advertising

Pasadena weather history for previous 24 hours

 ConditionsComfort  
Time TempWeatherWind HumidityBarometerVisibility
1:53 PM
Oct 20
76 °FSunny.7 mph50%29.85 "Hg10 mi
12:53 PM72 °FSunny.5 mph61%29.88 "Hg8 mi
11:53 AM69 °FPassing clouds.3 mph68%29.91 "Hg8 mi
10:53 AM66 °FOvercast.3 mph75%29.93 "Hg4 mi
9:53 AM63 °FLow clouds.3 mph84%29.92 "Hg4 mi
8:53 AM62 °FFog.3 mph86%29.91 "Hg3 mi
7:53 AM61 °FFog.3 mph93%29.89 "Hg2 mi
6:53 AM61 °FFog.No wind90%29.88 "Hg2 mi
5:53 AM61 °FFog.No wind93%29.87 "Hg2 mi
5:03 AM61 °FFog.3 mph93%29.89 "Hg4 mi
4:53 AM62 °FFog.5 mph86%29.85 "Hg2 mi
3:53 AM61 °FClear.3 mph83%29.85 "Hg10 mi
2:53 AM61 °FFog.6 mph90%29.85 "Hg6 mi
1:53 AM63 °FFog.3 mph87%29.86 "Hg5 mi
12:53 AM64 °FFog.No wind87%29.86 "Hg5 mi
11:53 PM
Oct 19
65 °FPassing clouds.5 mph85%29.86 "Hg5 mi
10:53 PM65 °FClear.6 mph87%29.86 "Hg10 mi
9:53 PM66 °FClear.7 mph78%29.85 "Hg10 mi
7:53 PM68 °FClear.5 mph73%29.83 "Hg10 mi
6:53 PM69 °FSunny.6 mph70%29.82 "Hg10 mi
5:53 PM72 °FSunny.7 mph64%29.80 "Hg10 mi
4:53 PM74 °FSunny.8 mph62%29.80 "Hg10 mi
3:53 PM76 °FSunny.8 mph56%29.80 "Hg10 mi
Weather by CustomWeather, © 2014

See weather overviewHow to use our weather pages